New River MCAS, NC

4:19 PM EDT on March 24, 2017 (GMT -0400)
New River Marine Corps Air Station

Weather History for KNCA - January, 2012

Change the Weather History Date:

Thursday, January 5, 2012

  Actual Average Record
Temperature  
Mean Temperature 44 °F -  
Max Temperature 55 °F 55 °F 77 °F (2004)
Min Temperature 30 °F 34 °F 19 °F (2008)
Degree Days  
Heating Degree Days 22    
Moisture  
Dew Point 23 °F    
Average Humidity 52    
Maximum Humidity 85    
Minimum Humidity 27    
Precipitation  
Precipitation 0.00 in - - ()
Sea Level Pressure  
Sea Level Pressure 30.10 in    
Wind  
Wind Speed 7 mph (West)    
Max Wind Speed 12 mph    
Max Gust Speed 18 mph    
Visibility 10 miles    
Events      
Averages and records for this station are not official NWS values.
T = Trace of Precipitation, MM = Missing Value Source: NWS Daily Summary

Daily Weather History Graph

Daily Weather History Graph

Search for Another Location

Airport or City:

Trip Planner

Search our weather history database for the weather conditions in past years. The results will help you decide how hot, cold, wet, or windy it might be!

Date:

Astronomy

Jan. 05, 2012 Rise Set
Actual Time 7:17 AM EST 5:12 PM EST
Civil Twilight 6:49 AM EST 5:40 PM EST
Nautical Twilight 6:18 AM EST 6:11 PM EST
Astronomical Twilight 5:47 AM EST 6:42 PM EST
Moon 2:15 PM EST (1/5) 4:00 AM EST (1/5)
Length of Visible Light 10h 50m
Length of Day
9h 55m
Waxing Gibbous, 87% of the Moon is Illuminated
Jan 5
Waxing Gibbous
Jan 9
Full
Jan 16
Last Quarter
Jan 23
New
Jan 30
First Quarter

Hourly Weather History & Observations

Time (EST) Temp. Windchill Dew Point Humidity Pressure Visibility Wind Dir Wind Speed Gust Speed Precip Events Conditions
12:56 AM 35.1 °F 29.3 °F 21.0 °F 57% 30.13 in 10.0 mi SW 6.9 mph - N/A   Clear
1:56 AM 36.0 °F 28.5 °F 19.9 °F 52% 30.11 in 10.0 mi WSW 10.4 mph - N/A   Clear
2:56 AM 36.0 °F 28.5 °F 19.0 °F 50% 30.09 in 10.0 mi WSW 10.4 mph - N/A   Clear
3:56 AM 35.1 °F 27.9 °F 19.0 °F 52% 30.08 in 10.0 mi WSW 9.2 mph - N/A   Clear
4:56 AM 36.0 °F 28.5 °F 19.0 °F 50% 30.06 in 10.0 mi WSW 10.4 mph - N/A   Clear
5:56 AM 34.0 °F 27.2 °F 18.0 °F 52% 30.07 in 10.0 mi West 8.1 mph - N/A   Clear
6:56 AM 33.1 °F 27.7 °F 19.0 °F 56% 30.09 in 10.0 mi West 5.8 mph - N/A   Clear
7:56 AM 34.0 °F 29.8 °F 19.0 °F 54% 30.11 in 7.0 mi WSW 4.6 mph - N/A   Scattered Clouds
8:56 AM 37.0 °F 31.6 °F 19.0 °F 48% 30.13 in 9.0 mi West 6.9 mph - N/A   Clear
9:56 AM 41.0 °F 36.4 °F 19.0 °F 41% 30.14 in 10.0 mi West 6.9 mph - N/A   Partly Cloudy
10:56 AM 48.0 °F - 19.9 °F 33% 30.13 in 10.0 mi NW 6.9 mph - N/A   Clear
11:56 AM 51.1 °F - 21.9 °F 32% 30.09 in 10.0 mi NW 8.1 mph - N/A   Clear
12:56 PM 53.1 °F - 24.1 °F 32% 30.06 in 10.0 mi WNW 8.1 mph - N/A   Clear
1:56 PM 55.0 °F - 24.1 °F 30% 30.04 in 10.0 mi West 9.2 mph 16.1 mph N/A   Clear
2:56 PM 55.9 °F - 21.9 °F 27% 30.04 in 10.0 mi West 11.5 mph 18.4 mph N/A   Clear
3:56 PM 55.0 °F - 21.9 °F 28% 30.06 in 10.0 mi WNW 9.2 mph - N/A   Clear
4:56 PM 51.1 °F - 25.0 °F 36% 30.07 in 10.0 mi West 5.8 mph - N/A   Clear
5:56 PM 46.9 °F - 26.1 °F 44% 30.09 in 10.0 mi West 4.6 mph - N/A   Clear
6:56 PM 39.9 °F - 28.0 °F 63% 30.11 in 10.0 mi Calm Calm - N/A   Clear
7:56 PM 36.0 °F - 28.0 °F 73% 30.13 in 10.0 mi Calm Calm - N/A   Clear
8:56 PM 33.1 °F - 28.9 °F 85% 30.14 in 10.0 mi Calm Calm - N/A   Clear
9:56 PM 33.1 °F - 28.0 °F 82% 30.14 in 10.0 mi Calm Calm - N/A   Clear
10:56 PM 32.0 °F - 28.0 °F 85% 30.14 in 10.0 mi Calm Calm - N/A   Clear
11:56 PM 30.0 °F - 26.1 °F 85% 30.14 in 10.0 mi Calm Calm - N/A   Clear